[[{"header":{"parameterUnit":"m.s-1","parameterCategory":1,"la1":30.2991,"la2":30.254,"lo1":-89.0895,"lo2":-89.0444,"dy":0.0017,"dx":0.0017,"nx":28,"ny":28,"refTime":"2025-07-29T21:00:00:Z","depth":0,"parameterNumber":2,"parameterNumberName":"U-component_of_WINDS"},"data":[0,0,0,0,0,0,0,0,0,0,0,0,0,0,0,0,0,0,0,0,0,0,0,0,0,0,0,0,0,0,0,0,0,0,0,0,0,0,0,0,0,0,0,0,0,0,0,0,0,0,0,0,0,0,0,0,0,0,0.8826,0.8825,0,0.8724,0.8723,0.8722,0.8615,0.8613,0.8612,0.861,0.8507,0.8506,0.8504,0,0,0,0,0,0,0,0,0,0,0,0,0,0.8929,0.8927,0.8826,0.8825,0.8823,0.8725,0.8723,0.8722,0.8615,0.8613,0.8611,0.861,0.8507,0.8506,0.8504,0,0,0,0,0,0,0,0,0,0,0,0,0,0.8861,0.8927,0.8826,0.8758,0.8751,0.8725,0.8723,0.8721,0.8616,0.8613,0.8611,0.8609,0.8508,0.8506,0.8504,0.8536,0,0,0.8498,0.8497,0,0,0,0,0,0,0,0,0.8865,0.8858,0.877,0.8763,0.8755,0.868,0.8721,0.8659,0.8616,0.8667,0.861,0.8608,0.8566,0.8559,0.8545,0.8532,0.8527,0.8497,0.8496,0.8495,0.8495,0,0,0,0,0,0,0,0.887,0.8861,0.8786,0.8768,0.876,0.8733,0.8721,0.8709,0.8631,0.8662,0.8654,0.8644,0.8562,0.8548,0.8542,0.8526,0.8498,0.8496,0.8494,0.8494,0.8535,0.8537,0,0,0,0,0,0,0.8885,0.8866,0.8789,0.8783,0.8806,0.8733,0.872,0.8706,0.863,0.8617,0.8646,0.8639,0.8552,0.8545,0.8538,0.8572,0.8495,0.8493,0.8492,0.8532,0.8535,0.8538,0,0,0,0,0,0,0.8888,0.8879,0.8793,0.8822,0.8809,0.8734,0.872,0.8706,0.8691,0.8618,0.8603,0.8646,0.855,0.8541,0.8538,0.8567,0.8493,0.8491,0.853,0.8533,0.8536,0.864,0,0,0,0,0,0,0.8891,0.8881,0.8892,0.8823,0.8808,0.8795,0.8721,0.8705,0.8688,0.8678,0.8614,0.8601,0.8548,0.8542,0.8536,0.8562,0.8489,0.8527,0.8531,0.8535,0.8633,0.8646,0.8657,0,0,0,0,0,0.8895,0.8925,0.8893,0.8884,0.8821,0.8797,0.8788,0.8726,0.869,0.8701,0.8655,0.8603,0.8565,0.8542,0.8535,0.8561,0.8525,0.853,0.8535,0.8628,0.8644,0.8657,0,0,0,0,0,0,0.8999,0.8914,0.8878,0.8887,0.885,0.8778,0.879,0.8744,0.8716,0.8708,0.8633,0.8619,0.8625,0.8593,0.8569,0.8589,0.8537,0.8541,0.861,0.8625,0.8636,0.8644,0.8487,0,0,0,0,0,0.9023,0.901,0.8937,0.8951,0.8935,0.8866,0.8853,0.8809,0.8767,0.8751,0.8704,0.8666,0.8645,0.8633,0.861,0.8628,0.8613,0.8643,0.8655,0.8665,0.8669,0.8678,0.869,0.8555,0.8555,0.8555,0,0,0.9072,0.9024,0.9021,0.8971,0.8937,0.8926,0.8854,0.8845,0.8836,0.8749,0.8744,0.8709,0.8661,0.8669,0.867,0.8642,0.8704,0.8672,0.868,0.8679,0.8684,0.8697,0.8709,0.8558,0.8558,0.8557,0,0,0.9155,0.9118,0.9126,0.9094,0.9044,0.8998,0.9001,0.8936,0.8909,0.8903,0.8838,0.8827,0.8792,0.8762,0.8741,0.8816,0.8767,0.881,0.8873,0.8881,0.8892,0.8901,0.8928,0.8939,0.8815,0.8815,0.8815,0,0.9223,0.9203,0.9137,0.9132,0.9113,0.9034,0.9043,0.9015,0.896,0.8948,0.8918,0.8874,0.8836,0.8837,0.8855,0.8841,0.8842,0.8817,0.8896,0.8904,0.8912,0.8937,0.8947,0.8821,0.882,0.8819,0.8819,0,0.9289,0.9277,0.929,0.9239,0.9221,0.9223,0.9157,0.9147,0.9105,0.9063,0.9058,0.901,0.8976,0.8973,0.8931,0.8968,0.8952,0.891,0.8856,0.8932,0.8954,0.8963,0.8829,0.8827,0.8825,0.8823,0,0,0.9435,0.9348,0.9354,0.933,0.927,0.9259,0.9258,0.9225,0.9219,0.9183,0.9181,0.9155,0.9116,0.9093,0.9047,0.9055,0.9118,0.9011,0.9009,0.9033,0.9156,0.9189,0.9201,0.9085,0.9087,0.9088,0.916,0,0.9508,0.9502,0.9442,0.9453,0.9441,0.9367,0.9367,0.933,0.9291,0.9275,0.9232,0.9215,0.9164,0.915,0.9155,0.9109,0.9141,0.9103,0.9083,0.9083,0.9098,0.9212,0.9246,0.9317,0.9169,0.917,0.9171,0,0.9593,0.9564,0.9574,0.9514,0.9507,0.9507,0.9473,0.9459,0.9416,0.9387,0.9363,0.9311,0.9307,0.9256,0.9249,0.9225,0.9213,0.919,0.9191,0.9187,0.9132,0.9212,0.9338,0.9349,0.9184,0.9183,0.9182,0,0.9699,0.9662,0.9664,0.9646,0.9576,0.9578,0.9549,0.9504,0.9488,0.9459,0.9448,0.9418,0.9402,0.9381,0.9323,0.9291,0.9323,0.9267,0.9299,0.9301,0.9309,0.9309,0.9435,0.9301,0.9301,0.9301,0.9301,0,0.9788,0.9797,0.9711,0.9712,0.972,0.9652,0.9662,0.9626,0.9587,0.9579,0.9514,0.9508,0.9432,0.9418,0.9373,0.9375,0.9368,0.9345,0.9332,0.9351,0.9354,0.9342,0.9336,0.9304,0.9303,0.9302,0.9302,0,0.9908,0.985,0.9847,0.9782,0.9766,0.9775,0.9719,0.9717,0.9674,0.9667,0.9661,0.9594,0.9574,0.9515,0.948,0.9449,0.9465,0.9442,0.948,0.9472,0.9508,0.9506,0.9631,0.9644,0.9502,0.9503,0.9504,0,0.9969,0.9974,0.991,0.9901,0.9875,0.986,0.9844,0.9778,0.9764,0.9717,0.9721,0.9697,0.9673,0.9646,0.9594,0.9568,0.9544,0.959,0.9539,0.9558,0.9545,0.9546,0.9547,0.9601,0.9603,0.9604,0.9605,0,1.0083,1.0054,1.0034,1.0005,0.9988,0.9961,0.993,0.9927,0.9852,0.9841,0.982,0.9803,0.9768,0.9744,0.971,0.968,0.9631,0.9622,0.9628,0.9647,0.9669,0.9658,0.951,0.9619,0.9618,0.9617,0.9616,0.9615,1.0175,1.0177,1.0133,1.0113,1.0083,1.0056,1.0052,1.0009,0.9991,0.9958,0.992,0.9904,0.9862,0.981,0.9784,0.9771,0.9745,0.9753,0.9756,0.9759,0.9768,0.9671,0.9765,0.9764,0.9764,0.9763,0.9763,0,1.0287,1.0255,1.0237,1.0197,1.0182,1.0137,1.0101,1.0091,1.0079,1.0043,1.0022,1.0,0.9977,0.9924,0.9897,0.9897,0.9874,0.9892,0.9891,0.9885,0.9793,0.9791,0.9911,0.9911,0.9911,0.9911,0.9911,0.9911,1.0343,1.0344,1.0311,1.0297,1.0264,1.0249,1.0233,1.0208,1.018,1.0157,1.0138,1.0104,1.0062,1.0031,1.0009,0.9994,0.9987,1.0013,0.9991,0.9906,0.9892,0.9878,0.9876,1.0012,1.0012,1.0084,1.0085,1.0086]},{"header":{"parameterUnit":"m.s-1","parameterCategory":1,"la1":30.2991,"la2":30.254,"lo1":-89.0895,"lo2":-89.0444,"dy":0.0017,"dx":0.0017,"nx":28,"ny":28,"refTime":"2025-07-29T21:00:00:Z","depth":0,"parameterNumber":3,"parameterNumberName":"V-component_of_WINDS"},"data":[0,0,0,0,0,0,0,0,0,0,0,0,0,0,0,0,0,0,0,0,0,0,0,0,0,0,0,0,0,0,0,0,0,0,0,0,0,0,0,0,0,0,0,0,0,0,0,0,0,0,0,0,0,0,0,0,0,0,-0.6956,-0.6955,0,-0.6949,-0.6949,-0.6949,-0.6916,-0.6915,-0.6914,-0.6914,-0.6908,-0.6909,-0.6909,0,0,0,0,0,0,0,0,0,0,0,0,0,-0.6941,-0.6941,-0.6956,-0.6955,-0.6955,-0.6949,-0.6949,-0.6949,-0.6916,-0.6915,-0.6914,-0.6913,-0.6908,-0.6909,-0.6909,0,0,0,0,0,0,0,0,0,0,0,0,0,-0.6942,-0.6941,-0.6956,-0.6938,-0.6936,-0.6949,-0.6949,-0.6949,-0.6916,-0.6915,-0.6914,-0.6913,-0.6908,-0.6908,-0.6909,-0.6939,0,0,-0.6912,-0.6912,0,0,0,0,0,0,0,0,-0.6942,-0.6943,-0.6941,-0.6939,-0.6938,-0.6932,-0.6942,-0.6946,-0.6917,-0.6924,-0.6914,-0.6912,-0.6917,-0.6917,-0.6919,-0.6938,-0.6938,-0.6912,-0.6913,-0.6913,-0.6913,0,0,0,0,0,0,0,-0.6942,-0.6943,-0.6953,-0.6941,-0.6939,-0.6931,-0.693,-0.6943,-0.6927,-0.6923,-0.6921,-0.692,-0.6916,-0.6918,-0.6918,-0.6938,-0.6912,-0.6913,-0.6913,-0.6914,-0.6984,-0.6986,0,0,0,0,0,0,-0.6944,-0.6943,-0.6953,-0.6953,-0.6937,-0.6933,-0.6931,-0.6935,-0.6927,-0.6925,-0.6922,-0.6919,-0.6917,-0.6917,-0.6918,-0.6953,-0.6913,-0.6914,-0.6914,-0.6983,-0.6985,-0.6986,0,0,0,0,0,0,-0.6944,-0.6945,-0.6953,-0.6947,-0.6948,-0.6934,-0.6939,-0.6936,-0.6937,-0.6926,-0.6923,-0.6926,-0.6916,-0.6917,-0.6934,-0.6953,-0.6914,-0.6915,-0.6981,-0.6983,-0.6985,-0.7024,0,0,0,0,0,0,-0.6944,-0.6946,-0.6956,-0.6948,-0.6948,-0.6969,-0.694,-0.6936,-0.6939,-0.6936,-0.6929,-0.6927,-0.6915,-0.6933,-0.6935,-0.6953,-0.6916,-0.698,-0.6982,-0.6985,-0.7021,-0.7027,-0.7032,0,0,0,0,0,-0.6943,-0.6967,-0.6957,-0.6958,-0.6961,-0.6971,-0.6971,-0.6956,-0.694,-0.6951,-0.6944,-0.6927,-0.695,-0.6935,-0.6937,-0.6956,-0.6978,-0.6982,-0.6984,-0.7018,-0.7026,-0.7032,0,0,0,0,0,0,-0.6977,-0.6965,-0.6954,-0.6975,-0.6974,-0.6965,-0.6978,-0.6964,-0.6968,-0.6964,-0.6946,-0.6945,-0.6966,-0.6962,-0.6946,-0.6985,-0.6962,-0.6965,-0.6987,-0.6994,-0.6999,-0.7,-0.6917,0,0,0,0,0,-0.6987,-0.6996,-0.6985,-0.7005,-0.7005,-0.6992,-0.6995,-0.6984,-0.6983,-0.6982,-0.6976,-0.6975,-0.6983,-0.6988,-0.6994,-0.702,-0.7019,-0.7034,-0.704,-0.7044,-0.7048,-0.7064,-0.7071,-0.6996,-0.6996,-0.6996,0,0,-0.7008,-0.7002,-0.7009,-0.7011,-0.7009,-0.702,-0.6991,-0.7003,-0.7011,-0.6984,-0.7001,-0.6996,-0.6995,-0.7017,-0.7027,-0.7015,-0.7069,-0.7048,-0.7052,-0.7053,-0.7068,-0.7075,-0.7081,-0.6998,-0.6998,-0.6997,0,0,-0.7051,-0.7047,-0.7064,-0.7063,-0.706,-0.7052,-0.7056,-0.7049,-0.7045,-0.7062,-0.7043,-0.7052,-0.7064,-0.7064,-0.7066,-0.7111,-0.7097,-0.7114,-0.7143,-0.7159,-0.7165,-0.717,-0.7188,-0.7195,-0.7117,-0.7117,-0.7117,0,-0.7077,-0.7091,-0.7074,-0.7088,-0.709,-0.7067,-0.7085,-0.7085,-0.7084,-0.7087,-0.7074,-0.709,-0.7087,-0.7111,-0.7122,-0.7123,-0.7129,-0.7115,-0.7166,-0.7171,-0.7175,-0.7192,-0.7199,-0.712,-0.7119,-0.7119,-0.7119,0,-0.7124,-0.7134,-0.7148,-0.7149,-0.7153,-0.7169,-0.7156,-0.7162,-0.7151,-0.7145,-0.7163,-0.7159,-0.7164,-0.7169,-0.7158,-0.7192,-0.7185,-0.7169,-0.7145,-0.7185,-0.7201,-0.7207,-0.7123,-0.7122,-0.7121,-0.7121,0,0,-0.7187,-0.718,-0.7186,-0.7187,-0.7183,-0.7191,-0.7206,-0.7212,-0.7219,-0.722,-0.7233,-0.7245,-0.7231,-0.7233,-0.7222,-0.7236,-0.7274,-0.7218,-0.7218,-0.723,-0.7314,-0.7327,-0.7334,-0.7264,-0.7265,-0.7266,-0.7314,0,-0.723,-0.7255,-0.7242,-0.727,-0.728,-0.7259,-0.7272,-0.7272,-0.7267,-0.7276,-0.7269,-0.7279,-0.7258,-0.726,-0.7272,-0.7267,-0.7291,-0.7263,-0.7278,-0.7279,-0.728,-0.7342,-0.7356,-0.7401,-0.732,-0.7321,-0.7322,0,-0.7282,-0.7286,-0.7315,-0.7312,-0.7316,-0.7328,-0.7333,-0.7341,-0.7342,-0.7337,-0.734,-0.7327,-0.7343,-0.7319,-0.7342,-0.7323,-0.7328,-0.7327,-0.7328,-0.733,-0.7304,-0.7347,-0.7415,-0.7423,-0.7331,-0.733,-0.733,0,-0.7328,-0.734,-0.736,-0.7361,-0.7357,-0.7367,-0.7366,-0.7364,-0.737,-0.7374,-0.7378,-0.7384,-0.7388,-0.7394,-0.7383,-0.7366,-0.7408,-0.7383,-0.7406,-0.7407,-0.7417,-0.7416,-0.7488,-0.7418,-0.7418,-0.7418,-0.7417,0,-0.7377,-0.7396,-0.7381,-0.7393,-0.7414,-0.7399,-0.7421,-0.7417,-0.7417,-0.7429,-0.7411,-0.7423,-0.7407,-0.7418,-0.7409,-0.7431,-0.7432,-0.743,-0.7428,-0.7432,-0.7433,-0.7436,-0.7433,-0.7419,-0.7419,-0.7419,-0.7418,0,-0.7432,-0.7422,-0.7442,-0.7437,-0.7437,-0.7453,-0.7449,-0.7461,-0.7454,-0.747,-0.7473,-0.7463,-0.7475,-0.7465,-0.7475,-0.747,-0.7499,-0.7492,-0.7499,-0.7498,-0.7522,-0.7521,-0.76,-0.761,-0.7532,-0.7533,-0.7533,0,-0.7465,-0.7479,-0.7476,-0.7483,-0.7483,-0.7494,-0.75,-0.7486,-0.7493,-0.7495,-0.7507,-0.7517,-0.7525,-0.7545,-0.7539,-0.7548,-0.7542,-0.7569,-0.7543,-0.7548,-0.7545,-0.7545,-0.7547,-0.7575,-0.7576,-0.7576,-0.7577,0,-0.7525,-0.752,-0.7528,-0.7536,-0.7543,-0.7548,-0.7551,-0.7558,-0.7545,-0.7553,-0.7565,-0.7571,-0.7583,-0.7595,-0.7602,-0.7602,-0.7588,-0.7585,-0.7591,-0.7597,-0.7602,-0.7601,-0.7515,-0.7583,-0.7583,-0.7582,-0.7582,-0.7582,-0.7571,-0.7583,-0.7584,-0.7594,-0.7596,-0.76,-0.7612,-0.7608,-0.7617,-0.7627,-0.7618,-0.7633,-0.7635,-0.7644,-0.7645,-0.7658,-0.7646,-0.7655,-0.7657,-0.766,-0.7665,-0.7599,-0.7659,-0.7658,-0.7658,-0.7658,-0.7658,0,-0.7631,-0.7631,-0.7641,-0.7647,-0.7656,-0.7642,-0.7646,-0.7655,-0.7668,-0.7671,-0.7679,-0.7695,-0.7706,-0.7702,-0.7712,-0.7723,-0.7717,-0.7726,-0.7726,-0.7727,-0.7673,-0.7667,-0.7731,-0.7731,-0.7731,-0.7731,-0.7731,-0.7731,-0.7664,-0.7685,-0.7681,-0.7703,-0.7703,-0.7718,-0.7722,-0.7726,-0.7729,-0.7747,-0.7756,-0.7753,-0.7754,-0.7764,-0.7775,-0.7773,-0.7779,-0.7791,-0.7787,-0.7737,-0.773,-0.7723,-0.7718,-0.7792,-0.7792,-0.784,-0.7841,-0.7841]}]]